Regional Weather Roundup
Issued by NWS

Home | Current Version | Previous Version | Graphics & Text | Print | Product List | Glossary On
Versions: 1 2 3 4 5 6 7 8 9 10 11 12 13 14 15 16 17 18 19 20 21 22 23 24 25 26 27 28 29 30 31 32 33 34 35 36 37 38 39 40 41 42 43 44 45 46 47 48 49 50
301
ASUS43 KMKX 261021
RWRWI

WISCONSIN REGIONAL WEATHER ROUNDUP
NATIONAL WEATHER SERVICE MILWAUKEE/SULLIVAN WI
500 AM CDT SUN MAR 26 2017

NOTE: "FAIR" INDICATES FEW OR NO CLOUDS BELOW 12,000 FEET WITH NO
SIGNIFICANT WEATHER AND/OR OBSTRUCTIONS TO VISIBILITY.

WIZ001-002-006>008-014>016-023>028-261100-
NORTHWEST WISCONSIN

CITY           SKY/WX    TMP DP  RH WIND       PRES   REMARKS
SUPERIOR ARPT  CLOUDY    33  32  98 NE8       30.03S WCI  25
ASHLAND        MIX PCPN  32  31  96 CALM      30.03F FOG
HAYWARD        LGT RAIN  35  32  88 NE6       29.97F FOG     WCI  30
SIREN          DRIZZLE   33  32  96 NE5       29.98S WCI  29
CUMBERLAND     LGT RAIN  32  32 100 E6        29.95F WCI  26
RICE LAKE      DRIZZLE   34  34  99 CALM      29.98F
CHETEK         CLOUDY    34  34  99 CALM      29.96F
LADYSMITH      CLOUDY    34  33  96 NE5       29.98F WCI  30
EAU CLAIRE     CLOUDY    35  34  96 NE7       29.95F FOG     WCI  29
MENOMONIE      CLOUDY    35  34  98 NE5       29.96F FOG     WCI  31
NEW RICHMOND   DRIZZLE   34  34  99 E5        29.95F WCI  30
OSCEOLA        LGT RAIN  36  36 100 E5        29.98F WCI  32
$$

WIZ003>005-009-010-017-018-261100-
NORTH CENTRAL WISCONSIN

CITY           SKY/WX    TMP DP  RH WIND       PRES   REMARKS
MANITOWISH WTR CLOUDY    32  32 100 E3        29.98S FOG
ARBOR VITAE    CLOUDY    34  33  96 SE6       29.97F FOG     WCI  29
WOODRUFF       CLOUDY    34  33  96 SE6       29.97F FOG     WCI  29
RHINELANDER    CLOUDY    33  32  96 E12       29.98F WCI  24
EAGLE RIVER    CLOUDY    31  31 100 E7        29.98F WCI  25
LAND O LAKES   CLOUDY    32  32 100 SE6       30.00F WCI  26
PHILLIPS       CLOUDY    32  32 100 E5        29.96F FOG     WCI  27
TOMAHAWK       DRIZZLE   32  31  96 CALM      29.98S
MEDFORD        MIX PCPN  32  31  98 E7        29.94F WCI  25
MERRILL        MIX PCPN  32  32 100 E5        29.98S WCI  28
$$

WIZ029-030-035-036-043>047-261100-
CENTRAL WISCONSIN

CITY           SKY/WX    TMP DP  RH WIND       PRES   REMARKS
WAUSAU         MIX PCPN  32  32 100 E8        29.95F FOG     WCI  25
MOSINEE        MIX PCPN  32  32 100 NE9       29.96F WCI  24
MARSHFIELD     LGT RAIN  33  31  92 E10       29.93F FOG     WCI  25
STEVENS POINT  MIX PCPN  31  31 100 E10       29.96F WCI  23
WAUPACA        CLOUDY    36  35  96 NE6       29.98S FOG     WCI  31
WAUTOMA        LGT RAIN  36  34  93 NE13      29.95F FOG     WCI  27
WISC RAPIDS    CLOUDY    34  34 100 E10       29.95F WCI  26
CAMP DOUGLAS   DRIZZLE   36  36 100 E7        29.92S FOG     WCI  30
$$

WIZ011>013-019>022-031-037>040-048>050-261100-
NORTHEAST WISCONSIN

CITY           SKY/WX    TMP DP  RH WIND       PRES   REMARKS
ANTIGO         CLOUDY    30  30 100 E8        29.97F FOG     WCI  23
SHAWANO        CLOUDY    34  33  93 NE8       30.01F FOG     WCI  28
OCONTO         CLOUDY    33  32  96 NE8       30.01F WCI  26
STURGEON BAY   CLOUDY    35  34  96 NE8       30.01  FOG     WCI  29
GREEN BAY      CLOUDY    35  35 100 NE10      29.99F FOG     WCI  27
MANITOWOC      LGT RAIN N/A N/A N/A NE7       29.98F
APPLETON       CLOUDY    34  34 100 NE12      29.94F FOG     WCI  25
CLINTONVILLE   LGT RAIN  32  32 100 NE6       29.99F WCI  26
OSHKOSH        LGT RAIN  36  35  96 NE10      29.95F VSB 1   WCI  28
$$

WIZ032>034-041-042-053>061-261100-
SOUTHWEST WISCONSIN

CITY           SKY/WX    TMP DP  RH WIND       PRES   REMARKS
LA CROSSE      LGT RAIN  38  36  92 NE6       29.92S WCI  33
SPARTA         CLOUDY    35  35  99 NE7       29.93S WCI  29
VIROQUA        CLOUDY    36  36 100 E9        29.89S WCI  29
BOSCOBEL       LGT RAIN  40  38  93 NE3       29.89F FOG
PRAIRIE DU CHI LGT RAIN  39  38  97 CALM      29.88S
PLATTEVILLE    CLOUDY    40  40 100 NE13      29.85F VSB 1   WCI  33
$$

WIZ056-057-062-063-064-067-068-261100-
SOUTH CENTRAL WISCONSIN

CITY           SKY/WX    TMP DP  RH WIND       PRES   REMARKS
REEDSBURG      CLOUDY    37  37 100 E7        29.91S FOG     WCI  31
BARABOO/DELLS  CLOUDY    36  36  98 NE8       29.91S FOG     WCI  30
LONE ROCK      CLOUDY    40  38  93 E9        29.89F FOG     WCI  34
MINERAL POINT  FOG       41  41 100 NE8       29.86S VSB 3/4
MADISON        CLOUDY    40  40 100 NE6       29.89F FOG
MIDDLETON      CLOUDY    41  41 100 NE6       29.89F
WATERTOWN      CLOUDY    40  40 100 E10       29.90S FOG     WCI  33
MONROE         SNOW      41  41 100 NE10      29.85F VSB 1/4
JANESVILLE     FOG       43  43 100 E9        29.86F VSB 1/2
$$

WIZ051-052-058>065-066-070>072-261100-
SOUTHEAST WISCONSIN

CITY           SKY/WX    TMP DP  RH WIND       PRES   REMARKS
MILWAUKEE      LGT RAIN  39  37  92 NE12      29.92F VSB 1/2 WCI  32
WAUKESHA       FOG       36  36 100 NE9       29.93S VSB 3/4 WCI  29
MILWAUKEE/TIMM CLOUDY    37  36  93 NE8       29.94F FOG     WCI  31
RACINE         FOG       40  38  93 NE9       29.93F VSB 1   WCI  34
KENOSHA        LGT RAIN  42  41  96 E10       29.90F VSB 1/2
FOND DU LAC    LGT RAIN  38  36  92 NE8       29.94F WCI  32
SHEBOYGAN      LGT RAIN  37  36  96 NE9       29.95F FOG     WCI  30
WEST BEND      RAIN      37  37 100 E9        29.94F WCI  31
JUNEAU         CLOUDY    38  38  99 E8        29.92F FOG     WCI  33
$$

LSZ147-162-261100-
LAKE SUPERIOR

STATION/POSITION TIME  TEMP    WIND        PRES    WAVE
                       AIR SEA DIR/SP/G            HT/PER
                 (UTC) (F)     (DEG/KT/KT) (MB)    (FT/S)
DEVILS ISLAND    1000   33     100/  6/  8 1018.0F
PORT WING        0940   33      40/  7/  8 1017.3S
SAXON HARBOR     0930   32      CALM  /  1 1016.6F
$$

LMZ867-665-643>646-261100-
LAKE MICHIGAN

STATION/POSITION TIME  TEMP    WIND        PRES    WAVE
                       AIR SEA DIR/SP/G            HT/PER
                 (UTC) (F)     (DEG/KT/KT) (MB)    (FT/S)
CHAMBERS ISLAND  0940   33      40/  8/ 10 1016.6F
NORTHPORT PIER   0940   33      80/ 14/ 18 1017.3F
SISTER BAY       0851   33     120/  8/ 13   N/A
KEWAUNEE LAKESHO 0954   36      50/  8/ 11 1015.2F
SHEBOYGAN LAKESH 1000   36      20/ 11/ 12 1015.0F
PORT WASHINGTON  0940   39      40/ 11/ 16 1015.6S
MILWAUKEE LAKESH 1000   38      20/ 14/ 15   N/A
KENOSHA   LAKESH 1000   39      30/ 12/ 13 1012.9
$$

TC  - TEMPERATURE IN CELSIUS
VSB - VISIBILITY IN STATUTE MILES
WCI - WIND CHILL INDEX
HX  - HEAT INDEX





USA.gov is the U.S. government's official web portal to all federal, state and local government web resources and services.